Location: *
(47.6569°N, 7.4256°E)
Time: 14:45:06
(UTC+00:00)

Cosmos 1300 Rocket - Pass Details

Date: 14 December 2019
Orbit: 602 x 627 km, 82.5° (Epoch: 19 January)

Event Time Altitude Azimuth Distance (km) Brightness Sun altitude
Rises 17:01:35 0° 0° (N) 2,869 6.8 -13.2°
Reaches altitude 10° 17:04:07 10° 13° (NNE) 1,959 5.8 -13.6°
Maximum altitude 17:07:46 26° 71° (ENE) 1,203 4.4 -14.2°
Drops below altitude 10° 17:11:23 10° 128° (SE) 1,945 5.8 -14.8°
Sets 17:13:53 0° 141° (SE) 2,844 6.8 -15.2°
